Вернуться в каталог

NIMBUS 2

АктивенПогодаSSO
NORAD 2173·PAYLOAD·🇺🇸 United States

Запущен May 15, 1966 с Vandenberg Space Force Base

Loading…

Ближайшие Пролёты (ближайшие 24 часа)

TLE

СвежийSource: Space-Track

Эпоха: Sep 14, 2026, 13:59 UTC

1 02173U 66040A   26257.58298223 -.00000024  00000-0  46927-4 0  9999
2 02173 100.5152 118.3655 0055898  87.6551 301.3470 13.33723420935547

Отслеживайте NIMBUS 2 в реальном времени с AllMySat

Download on the App Store